Flag for Indonesia Weather past 2 weeks in Medan, North Sumatra, Indonesia

Now
79 °F

Passing clouds.


Feels Like: 83 °F
Forecast: 76 / 86 °F
Wind: 5 mph from West

Location: Medan / Polonia

Current Time: Jan 27, 2015 at 2:19:59 AM

Latest Report: Jan 27, 2015 at 1:30 AM


Visibility: 3 mi

Pressure: 29.86 "Hg

Humidity: 94%

Dew point: 77 °F

Location of MedanLocation

Historic Weather in Medan — Graph

°F

Medan temperature yesterday

Maximum temperature yesterday: 88 °F (at 1:30 PM)
Minimum temperature yesterday: 77 °F (at 3:00 AM)
Average temperature yesterday: 81 °F

Past Weeks' High & Low Weather Summary

 TemperatureHumidityPressure
High91 °F (Jan 12, 1:00 PM)100% (Jan 12, 1:00 AM)30.04 "Hg (Jan 12, 1:00 AM)
Low72 °F (Jan 19, 4:00 AM)52% (Jan 20, 12:30 PM)29.71 "Hg (Jan 12, 4:00 PM)
Average81 °F85%29.88 "Hg
* Reported Jan 12 1:00 AM — Jan 27 1:00 AM, Medan, Weather by CustomWeather, © 2014

Note: Actual official high and low records may vary slightly from our data, if they occured in-between our weather recording intervals... More about our weather records

Advertising

Medan weather history for previous 24 hours

 ConditionsComfort  
Time TempWeatherWind HumidityBarometerVisibility
1:00 AM
Jan 27
77 °FPassing clouds.6 mph100%29.89 "Hg2 mi
12:00 AM77 °FPassing clouds.3 mph100%29.89 "Hg2 mi
11:30 PM
Jan 26
77 °FPassing clouds.3 mph100%29.89 "Hg2 mi
11:00 PM77 °FPassing clouds.3 mph100%29.89 "Hg2 mi
10:30 PM77 °FPassing clouds.2 mph100%29.92 "Hg3 mi
10:00 PM77 °FPassing clouds.5 mph100%29.92 "Hg3 mi
9:30 PM77 °FFog.3 mph100%29.89 "Hg2 mi
9:00 PM79 °FFog.5 mph94%29.89 "Hg2 mi
8:30 PM79 °FPassing clouds.5 mph94%29.86 "Hg2 mi
8:00 PM81 °FPassing clouds.5 mph84%29.86 "Hg3 mi
7:00 PM82 °FPassing clouds.5 mph79%29.83 "Hg4 mi
6:30 PM82 °FScattered clouds.6 mph79%29.83 "Hg5 mi
6:00 PM84 °FScattered clouds.8 mph74%29.83 "Hg5 mi
5:30 PM84 °FScattered clouds.10 mph79%29.80 "Hg5 mi
5:00 PM84 °FScattered clouds.10 mph84%29.80 "HgN/A
4:30 PM86 °FScattered clouds.10 mph79%29.80 "HgN/A
4:00 PM86 °FScattered clouds.12 mph79%29.80 "HgN/A
3:00 PM86 °FScattered clouds.12 mph79%29.80 "HgN/A
2:30 PM86 °FScattered clouds.13 mph79%29.83 "HgN/A
2:00 PM88 °FScattered clouds.14 mph70%29.86 "HgN/A
1:30 PM88 °FScattered clouds.13 mph75%29.86 "HgN/A
1:00 PM86 °FScattered clouds.13 mph79%29.89 "HgN/A
12:30 PM86 °FPartly sunny.13 mph79%29.89 "HgN/A
12:00 PM86 °FScattered clouds.12 mph79%29.89 "HgN/A
11:30 AM84 °FPartly sunny.9 mph84%29.92 "HgN/A
11:00 AM84 °FPartly sunny.13 mph79%29.92 "Hg5 mi
10:00 AM84 °FPartly sunny.7 mph84%29.92 "Hg4 mi
9:30 AM82 °FScattered clouds.6 mph89%29.92 "Hg3 mi
9:00 AM82 °FScattered clouds.6 mph89%29.92 "Hg3 mi
8:30 AM81 °FScattered clouds.3 mph89%29.92 "Hg3 mi
8:00 AM82 °FScattered clouds.3 mph84%29.92 "Hg3 mi
7:30 AM77 °FFog.No wind100%29.89 "Hg2 mi
7:00 AM77 °FPartly sunny.No wind100%29.89 "Hg2 mi
6:30 AM77 °FFog.3 mph100%29.89 "Hg2 mi
6:00 AM77 °FPassing clouds.5 mph100%29.89 "Hg2 mi
5:30 AM79 °FPassing clouds.3 mph94%29.89 "Hg2 mi
5:00 AM77 °FFog.5 mph100%29.86 "Hg2 mi
4:30 AM79 °FFog.No wind94%29.86 "Hg2 mi
4:00 AM79 °FPassing clouds.No wind94%29.86 "Hg2 mi
3:30 AM79 °FPassing clouds.3 mph94%29.86 "Hg2 mi
3:00 AM77 °FPassing clouds.No wind100%29.86 "Hg2 mi
2:30 AM79 °FPassing clouds.3 mph94%29.89 "Hg3 mi
2:00 AM79 °FPassing clouds.3 mph94%29.89 "Hg3 mi
Weather by CustomWeather, © 2014

See weather overviewHow to use our weather pages